Wetterdaten: Sonntag, 19.10.2014
Datum Zeit Temperatur Luftfeuchte Luftdruck Regen Wind Richtung Richtung Taupunkt Windchill Windben
19.10.2014 00:00 7,2 C 90 % 1025,8 hPa 0,0 l/m 0,0 km/h (0 Bft) S-SO 157 5,7 C 22,8 C 0,0 km/h (0 Bft)
19.10.2014 00:10 7,2 C 90 % 1025,8 hPa 0,0 l/m 0,0 km/h (0 Bft) S-SO 157 5,7 C 22,8 C 0,0 km/h (0 Bft)
19.10.2014 00:20 7,0 C 90 % 1025,8 hPa 0,0 l/m 0,0 km/h (0 Bft) S-SO 157 5,5 C 22,8 C 0,0 km/h (0 Bft)
19.10.2014 00:30 6,8 C 90 % 1025,8 hPa 0,0 l/m 0,0 km/h (0 Bft) S-SO 157 5,3 C 22,8 C 0,0 km/h (0 Bft)
19.10.2014 00:40 7,0 C 90 % 1025,6 hPa 0,0 l/m 0,0 km/h (0 Bft) S-SO 157 5,5 C 22,8 C 0,0 km/h (0 Bft)
19.10.2014 00:50 7,0 C 91 % 1025,6 hPa 0,0 l/m 0,0 km/h (0 Bft) S-SO 157 5,6 C 22,8 C 0,0 km/h (0 Bft)
19.10.2014 01:00 7,2 C 91 % 1025,5 hPa 0,0 l/m 0,0 km/h (0 Bft) S-SO 157 5,8 C 22,8 C 0,0 km/h (0 Bft)
19.10.2014 01:10 7,1 C 91 % 1025,5 hPa 0,0 l/m 0,0 km/h (0 Bft) S-SO 157 5,7 C 22,8 C 0,0 km/h (0 Bft)
19.10.2014 01:20 7,0 C 91 % 1025,5 hPa 0,0 l/m 0,0 km/h (0 Bft) S-SO 157 5,6 C 22,8 C 0,0 km/h (0 Bft)
19.10.2014 01:30 7,1 C 91 % 1025,5 hPa 0,0 l/m 0,0 km/h (0 Bft) S-SO 157 5,7 C 22,8 C 0,0 km/h (0 Bft)
19.10.2014 01:40 7,3 C 92 % 1025,3 hPa 0,0 l/m 0,0 km/h (0 Bft) S-SO 157 6,1 C 22,8 C 0,0 km/h (0 Bft)
19.10.2014 01:50 6,9 C 92 % 1025,3 hPa 0,0 l/m 0,0 km/h (0 Bft) S-SO 157 5,7 C 22,8 C 0,0 km/h (0 Bft)
19.10.2014 02:00 7,2 C 92 % 1025,2 hPa 0,0 l/m 0,0 km/h (0 Bft) S-SO 157 6,0 C 22,8 C 0,0 km/h (0 Bft)
19.10.2014 02:10 6,8 C 92 % 1025,2 hPa 0,0 l/m 0,0 km/h (0 Bft) S-SO 157 5,6 C 22,8 C 0,0 km/h (0 Bft)
19.10.2014 02:20 6,9 C 92 % 1025,2 hPa 0,0 l/m 0,0 km/h (0 Bft) S-SO 157 5,7 C 22,8 C 0,0 km/h (0 Bft)
19.10.2014 02:30 7,0 C 92 % 1025,2 hPa 0,0 l/m 0,0 km/h (0 Bft) S-SO 157 5,8 C 22,8 C 0,0 km/h (0 Bft)
19.10.2014 02:40 7,1 C 92 % 1025,2 hPa 0,0 l/m 0,0 km/h (0 Bft) S-SO 157 5,9 C 22,8 C 0,0 km/h (0 Bft)
19.10.2014 02:50 6,7 C 92 % 1025,2 hPa 0,0 l/m 0,0 km/h (0 Bft) S-SO 157 5,5 C 22,8 C 0,0 km/h (0 Bft)
19.10.2014 03:00 6,6 C 92 % 1025,2 hPa 0,0 l/m 0,0 km/h (0 Bft) S-SO 157 5,4 C 22,8 C 0,0 km/h (0 Bft)
19.10.2014 03:10 6,6 C 92 % 1025,2 hPa 0,0 l/m 0,0 km/h (0 Bft) S-SO 157 5,4 C 22,8 C 0,0 km/h (0 Bft)
19.10.2014 03:20 6,4 C 93 % 1025,0 hPa 0,0 l/m 0,0 km/h (0 Bft) S-SO 157 5,4 C 22,8 C 0,0 km/h (0 Bft)
19.10.2014 03:30 6,7 C 93 % 1025,0 hPa 0,0 l/m 0,0 km/h (0 Bft) S-SO 157 5,6 C 22,8 C 0,0 km/h (0 Bft)
19.10.2014 03:40 6,4 C 93 % 1025,0 hPa 0,0 l/m 0,0 km/h (0 Bft) S-SO 157 5,4 C 22,8 C 0,0 km/h (0 Bft)
19.10.2014 03:50 6,3 C 93 % 1025,0 hPa 0,0 l/m 0,0 km/h (0 Bft) S-SO 157 5,3 C 22,8 C 0,0 km/h (0 Bft)
19.10.2014 04:00 6,3 C 93 % 1024,9 hPa 0,0 l/m 0,0 km/h (0 Bft) S-SO 157 5,3 C 22,8 C 0,0 km/h (0 Bft)
19.10.2014 04:10 6,5 C 93 % 1024,9 hPa 0,0 l/m 0,0 km/h (0 Bft) S-SO 157 5,5 C 22,8 C 0,0 km/h (0 Bft)
19.10.2014 04:20 6,5 C 94 % 1025,0 hPa 0,0 l/m 0,0 km/h (0 Bft) S-SO 157 5,6 C 22,8 C 0,0 km/h (0 Bft)
19.10.2014 04:30 6,5 C 94 % 1025,0 hPa 0,0 l/m 0,0 km/h (0 Bft) S-SO 157 5,6 C 22,8 C 0,0 km/h (0 Bft)
19.10.2014 04:40 6,7 C 94 % 1024,9 hPa 0,0 l/m 0,0 km/h (0 Bft) S-SO 157 5,8 C 22,8 C 0,0 km/h (0 Bft)
19.10.2014 04:50 6,6 C 94 % 1024,9 hPa 0,0 l/m 0,0 km/h (0 Bft) S-SO 157 5,7 C 22,8 C 0,0 km/h (0 Bft)
19.10.2014 05:00 6,5 C 94 % 1025,0 hPa 0,0 l/m 0,0 km/h (0 Bft) S-SO 157 5,6 C 22,8 C 0,0 km/h (0 Bft)
19.10.2014 05:10 6,6 C 94 % 1025,0 hPa 0,0 l/m 0,0 km/h (0 Bft) S-SO 157 5,7 C 22,8 C 0,0 km/h (0 Bft)
19.10.2014 05:20 6,5 C 94 % 1025,0 hPa 0,0 l/m 0,0 km/h (0 Bft) S-SO 157 5,6 C 22,8 C 0,0 km/h (0 Bft)
19.10.2014 05:30 6,2 C 94 % 1025,0 hPa 0,0 l/m 0,0 km/h (0 Bft) S-SO 157 5,3 C 22,8 C 0,0 km/h (0 Bft)
19.10.2014 05:40 6,3 C 94 % 1024,9 hPa 0,0 l/m 0,0 km/h (0 Bft) S-SO 157 5,4 C 22,8 C 0,0 km/h (0 Bft)
19.10.2014 05:50 6,4 C 94 % 1024,9 hPa 0,0 l/m 0,0 km/h (0 Bft) S-SO 157 5,5 C 22,8 C 0,0 km/h (0 Bft)
19.10.2014 06:00 6,1 C 94 % 1024,9 hPa 0,0 l/m 0,0 km/h (0 Bft) S-SO 157 5,2 C 22,8 C 0,0 km/h (0 Bft)
19.10.2014 06:10 6,2 C 94 % 1024,9 hPa 0,0 l/m 0,0 km/h (0 Bft) S-SO 157 5,3 C 22,8 C 0,0 km/h (0 Bft)
19.10.2014 06:20 5,9 C 96 % 1025,1 hPa 0,0 l/m 0,0 km/h (0 Bft) S-SO 157 5,3 C 22,8 C 0,0 km/h (0 Bft)
19.10.2014 06:30 5,9 C 96 % 1025,1 hPa 0,0 l/m 0,0 km/h (0 Bft) S-SO 157 5,3 C 22,8 C 0,0 km/h (0 Bft)
19.10.2014 06:40 6,0 C 95 % 1025,0 hPa 0,0 l/m 0,0 km/h (0 Bft) S-SO 157 5,3 C 22,8 C 0,0 km/h (0 Bft)
19.10.2014 06:50 5,9 C 96 % 1025,0 hPa 0,0 l/m 0,0 km/h (0 Bft) S-SO 157 5,3 C 22,8 C 0,0 km/h (0 Bft)
19.10.2014 07:00 5,9 C 96 % 1024,9 hPa 0,0 l/m 0,0 km/h (0 Bft) S-SO 157 5,3 C 22,8 C 0,0 km/h (0 Bft)
19.10.2014 07:10 6,0 C 95 % 1024,9 hPa 0,0 l/m 0,0 km/h (0 Bft) S-SO 157 5,3 C 22,8 C 0,0 km/h (0 Bft)
19.10.2014 07:20 5,8 C 96 % 1024,6 hPa 0,0 l/m 0,0 km/h (0 Bft) S-SO 157 5,2 C 22,8 C 0,0 km/h (0 Bft)
19.10.2014 07:30 6,0 C 95 % 1024,6 hPa 0,0 l/m 0,0 km/h (0 Bft) S-SO 157 5,3 C 22,8 C 0,0 km/h (0 Bft)
19.10.2014 07:40 6,0 C 95 % 1024,6 hPa 0,0 l/m 0,0 km/h (0 Bft) S-SO 157 5,3 C 22,8 C 0,0 km/h (0 Bft)
19.10.2014 07:50 6,0 C 95 % 1024,8 hPa 0,0 l/m 0,0 km/h (0 Bft) S-SO 157 5,3 C 22,8 C 0,0 km/h (0 Bft)
19.10.2014 08:00 6,1 C 95 % 1024,8 hPa 0,0 l/m 0,0 km/h (0 Bft) S-SO 157 5,4 C 22,8 C 0,0 km/h (0 Bft)
19.10.2014 08:10 5,9 C 96 % 1025,0 hPa 0,0 l/m 0,0 km/h (0 Bft) S-SO 157 5,3 C 22,8 C 0,0 km/h (0 Bft)
19.10.2014 08:20 6,1 C 95 % 1025,0 hPa 0,0 l/m 0,0 km/h (0 Bft) S-SO 157 5,4 C 22,8 C 0,0 km/h (0 Bft)
19.10.2014 08:30 6,4 C 95 % 1024,9 hPa 0,0 l/m 0,0 km/h (0 Bft) S-SO 157 5,7 C 22,8 C 0,0 km/h (0 Bft)
19.10.2014 08:40 6,4 C 95 % 1024,9 hPa 0,0 l/m 0,0 km/h (0 Bft) S-SO 157 5,7 C 22,8 C 0,0 km/h (0 Bft)
19.10.2014 08:50 6,6 C 95 % 1025,1 hPa 0,0 l/m 0,0 km/h (0 Bft) S-SO 157 5,9 C 22,8 C 0,0 km/h (0 Bft)
19.10.2014 09:00 7,0 C 95 % 1025,1 hPa 0,0 l/m 0,0 km/h (0 Bft) S-SO 157 6,3 C 22,8 C 0,0 km/h (0 Bft)
19.10.2014 09:10 7,1 C 95 % 1024,9 hPa 0,0 l/m 0,0 km/h (0 Bft) S-SO 157 6,4 C 22,8 C 0,0 km/h (0 Bft)
19.10.2014 09:20 7,7 C 95 % 1024,9 hPa 0,0 l/m 0,0 km/h (0 Bft) S-SO 157 7,0 C 22,8 C 0,0 km/h (0 Bft)
19.10.2014 09:30 8,4 C 95 % 1025,1 hPa 0,0 l/m 0,0 km/h (0 Bft) S-SO 157 7,6 C 22,8 C 0,0 km/h (0 Bft)
19.10.2014 09:40 9,1 C 95 % 1025,1 hPa 0,0 l/m 0,0 km/h (0 Bft) S-SO 157 8,3 C 22,8 C 0,0 km/h (0 Bft)
19.10.2014 09:50 9,4 C 95 % 1025,2 hPa 0,0 l/m 0,0 km/h (0 Bft) S-SO 157 8,6 C 22,8 C 0,0 km/h (0 Bft)
19.10.2014 10:00 9,8 C 95 % 1025,2 hPa 0,0 l/m 0,0 km/h (0 Bft) S-SO 157 9,0 C 22,8 C 0,0 km/h (0 Bft)
19.10.2014 10:10 9,8 C 95 % 1025,4 hPa 0,0 l/m 0,0 km/h (0 Bft) S-SO 157 9,0 C 22,8 C 0,0 km/h (0 Bft)
19.10.2014 10:20 10,0 C 95 % 1025,4 hPa 0,0 l/m 0,0 km/h (0 Bft) S-SO 157 9,2 C 22,8 C 0,0 km/h (0 Bft)
19.10.2014 10:30 10,7 C 95 % 1025,4 hPa 0,0 l/m 0,0 km/h (0 Bft) S-SO 157 9,9 C 22,8 C 0,0 km/h (0 Bft)
19.10.2014 10:40 11,5 C 95 % 1025,4 hPa 0,0 l/m 0,0 km/h (0 Bft) S-SO 157 10,7 C 22,8 C 0,0 km/h (0 Bft)
19.10.2014 10:50 12,0 C 94 % 1025,3 hPa 0,0 l/m 0,0 km/h (0 Bft) S-SO 157 11,1 C 22,8 C 0,0 km/h (0 Bft)
19.10.2014 11:00 12,6 C 94 % 1025,3 hPa 0,0 l/m 0,0 km/h (0 Bft) S-SO 157 11,7 C 22,8 C 0,0 km/h (0 Bft)
19.10.2014 11:08 13,1 C 92 % 1025,6 hPa 0,0 l/m 0,0 km/h (0 Bft) S-SO 157 11,8 C 22,8 C 0,0 km/h (0 Bft)
19.10.2014 11:10 13,1 C 92 % 1025,6 hPa 0,0 l/m 0,0 km/h (0 Bft) S-SO 157 11,8 C 22,8 C 0,0 km/h (0 Bft)
19.10.2014 11:20 13,6 C 92 % 1025,6 hPa 0,0 l/m 0,0 km/h (0 Bft) S-SO 157 12,3 C 22,8 C 0,0 km/h (0 Bft)
19.10.2014 11:30 15,1 C 89 % 1025,5 hPa 0,0 l/m 0,0 km/h (0 Bft) S-SO 157 13,3 C 22,8 C 0,0 km/h (0 Bft)
19.10.2014 11:40 17,7 C 80 % 1025,5 hPa 0,0 l/m 0,0 km/h (0 Bft) S-SO 157 14,2 C 22,8 C 0,0 km/h (0 Bft)
19.10.2014 11:50 17,5 C 80 % 1025,8 hPa 0,0 l/m 0,0 km/h (0 Bft) S-SO 157 14,0 C 22,8 C 0,0 km/h (0 Bft)
19.10.2014 12:00 17,1 C 81 % 1025,8 hPa 0,0 l/m 0,0 km/h (0 Bft) S-SO 157 13,8 C 22,8 C 0,0 km/h (0 Bft)
19.10.2014 12:10 19,0 C 78 % 1026,0 hPa 0,0 l/m 0,0 km/h (0 Bft) S-SO 157 15,1 C 22,8 C 0,0 km/h (0 Bft)
19.10.2014 12:20 21,1 C 65 % 1026,0 hPa 0,0 l/m 0,0 km/h (0 Bft) S-SO 157 14,3 C 22,8 C 0,0 km/h (0 Bft)
19.10.2014 12:30 23,1 C 57 % 1026,1 hPa 0,0 l/m 0,0 km/h (0 Bft) S-SO 157 14,1 C 22,8 C 0,0 km/h (0 Bft)
19.10.2014 12:40 24,1 C 49 % 1026,1 hPa 0,0 l/m 0,0 km/h (0 Bft) S-SO 157 12,7 C 22,8 C 0,0 km/h (0 Bft)
19.10.2014 12:50 24,2 C 40 % 1026,1 hPa 0,0 l/m 0,0 km/h (0 Bft) S-SO 157 9,7 C 22,8 C 0,0 km/h (0 Bft)
19.10.2014 13:00 24,2 C 39 % 1026,1 hPa 0,0 l/m 0,0 km/h (0 Bft) S-SO 157 9,4 C 22,8 C 0,0 km/h (0 Bft)
19.10.2014 13:10 24,0 C 40 % 1026,1 hPa 0,0 l/m 0,0 km/h (0 Bft) S-SO 157 9,6 C 22,8 C 0,0 km/h (0 Bft)
19.10.2014 13:20 23,5 C 38 % 1026,1 hPa 0,0 l/m 0,0 km/h (0 Bft) S-SO 157 8,4 C 22,8 C 0,0 km/h (0 Bft)
19.10.2014 13:30 23,7 C 40 % 1026,0 hPa 0,0 l/m 0,0 km/h (0 Bft) S-SO 157 9,3 C 22,8 C 0,0 km/h (0 Bft)
19.10.2014 13:40 23,1 C 39 % 1026,0 hPa 0,0 l/m 0,0 km/h (0 Bft) S-SO 157 8,4 C 22,8 C 0,0 km/h (0 Bft)
19.10.2014 13:50 22,8 C 41 % 1025,9 hPa 0,0 l/m 0,0 km/h (0 Bft) S-SO 157 8,9 C 22,8 C 0,0 km/h (0 Bft)
19.10.2014 14:00 22,9 C 39 % 1025,9 hPa 0,0 l/m 0,0 km/h (0 Bft) S-SO 157 8,2 C 22,8 C 0,0 km/h (0 Bft)
19.10.2014 14:08 22,9 C 39 % 1025,8 hPa 0,0 l/m 0,0 km/h (0 Bft) S-SO 157 8,2 C 22,8 C 0,0 km/h (0 Bft)
19.10.2014 14:20 23,1 C 39 % 1025,8 hPa 0,0 l/m 0,0 km/h (0 Bft) S-SO 157 8,4 C 22,8 C 0,0 km/h (0 Bft)
19.10.2014 14:30 23,4 C 40 % 1025,7 hPa 0,0 l/m 0,0 km/h (0 Bft) S-SO 157 9,0 C 22,8 C 0,0 km/h (0 Bft)
19.10.2014 14:40 23,3 C 40 % 1025,7 hPa 0,0 l/m 0,0 km/h (0 Bft) S-SO 157 8,9 C 22,8 C 0,0 km/h (0 Bft)
19.10.2014 14:50 23,7 C 39 % 1025,6 hPa 0,0 l/m 0,0 km/h (0 Bft) S-SO 157 8,9 C 22,8 C 0,0 km/h (0 Bft)
19.10.2014 15:00 24,1 C 38 % 1025,6 hPa 0,0 l/m 0,0 km/h (0 Bft) S-SO 157 8,9 C 22,8 C 0,0 km/h (0 Bft)
19.10.2014 15:10 23,8 C 37 % 1025,2 hPa 0,0 l/m 0,0 km/h (0 Bft) S-SO 157 8,2 C 22,8 C 0,0 km/h (0 Bft)
19.10.2014 15:20 23,6 C 36 % 1025,2 hPa 0,0 l/m 0,0 km/h (0 Bft) S-SO 157 7,6 C 22,8 C 0,0 km/h (0 Bft)
19.10.2014 15:30 23,3 C 36 % 1025,2 hPa 0,0 l/m 0,0 km/h (0 Bft) S-SO 157 7,4 C 22,8 C 0,0 km/h (0 Bft)
19.10.2014 15:40 23,1 C 36 % 1025,2 hPa 0,0 l/m 0,0 km/h (0 Bft) S-SO 157 7,2 C 22,8 C 0,0 km/h (0 Bft)
19.10.2014 15:50 22,8 C 37 % 1025,2 hPa 0,0 l/m 0,0 km/h (0 Bft) S-SO 157 7,3 C 22,8 C 0,0 km/h (0 Bft)
19.10.2014 16:00 22,9 C 38 % 1025,2 hPa 0,0 l/m 0,0 km/h (0 Bft) S-SO 157 7,8 C 22,8 C 0,0 km/h (0 Bft)
19.10.2014 16:10 22,5 C 38 % 1025,1 hPa 0,0 l/m 0,0 km/h (0 Bft) S-SO 157 7,5 C 22,8 C 0,0 km/h (0 Bft)
19.10.2014 16:20 22,2 C 37 % 1025,1 hPa 0,0 l/m 0,0 km/h (0 Bft) S-SO 157 6,8 C 22,8 C 0,0 km/h (0 Bft)
19.10.2014 16:30 22,0 C 38 % 1024,9 hPa 0,0 l/m 0,0 km/h (0 Bft) S-SO 157 7,0 C 22,8 C 0,0 km/h (0 Bft)
19.10.2014 16:40 21,1 C 40 % 1024,9 hPa 0,0 l/m 0,0 km/h (0 Bft) S-SO 157 7,0 C 22,8 C 0,0 km/h (0 Bft)
19.10.2014 16:50 19,9 C 46 % 1024,8 hPa 0,0 l/m 0,0 km/h (0 Bft) S-SO 157 7,9 C 22,8 C 0,0 km/h (0 Bft)
19.10.2014 16:58 19,4 C 47 % 1024,8 hPa 0,0 l/m 0,0 km/h (0 Bft) S-SO 157 7,8 C 22,8 C 0,0 km/h (0 Bft)
19.10.2014 17:00 19,4 C 47 % 1024,8 hPa 0,0 l/m 0,0 km/h (0 Bft) S-SO 157 7,8 C 22,8 C 0,0 km/h (0 Bft)
19.10.2014 17:10 19,2 C 48 % 1024,6 hPa 0,0 l/m 0,0 km/h (0 Bft) S-SO 157 7,9 C 22,8 C 0,0 km/h (0 Bft)
19.10.2014 17:20 18,8 C 49 % 1024,6 hPa 0,0 l/m 0,0 km/h (0 Bft) S-SO 157 7,9 C 22,8 C 0,0 km/h (0 Bft)
19.10.2014 17:30 18,5 C 50 % 1024,5 hPa 0,0 l/m 0,0 km/h (0 Bft) S-SO 157 7,9 C 22,8 C 0,0 km/h (0 Bft)
19.10.2014 17:40 18,3 C 50 % 1024,5 hPa 0,0 l/m 0,0 km/h (0 Bft) S-SO 157 7,7 C 22,8 C 0,0 km/h (0 Bft)
19.10.2014 17:50 18,1 C 51 % 1024,6 hPa 0,0 l/m 0,0 km/h (0 Bft) S-SO 157 7,8 C 22,8 C 0,0 km/h (0 Bft)
19.10.2014 18:00 17,4 C 53 % 1024,6 hPa 0,0 l/m 0,0 km/h (0 Bft) S-SO 157 7,7 C 22,8 C 0,0 km/h (0 Bft)
19.10.2014 18:10 17,0 C 53 % 1024,6 hPa 0,0 l/m 0,0 km/h (0 Bft) S-SO 157 7,4 C 22,8 C 0,0 km/h (0 Bft)
19.10.2014 18:20 17,5 C 52 % 1024,6 hPa 0,0 l/m 0,0 km/h (0 Bft) S-SO 157 7,5 C 22,8 C 0,0 km/h (0 Bft)
19.10.2014 18:30 17,3 C 52 % 1024,7 hPa 0,0 l/m 0,0 km/h (0 Bft) S-SO 157 7,3 C 22,8 C 0,0 km/h (0 Bft)
19.10.2014 18:40 17,8 C 50 % 1024,7 hPa 0,0 l/m 0,0 km/h (0 Bft) S-SO 157 7,2 C 22,8 C 0,0 km/h (0 Bft)
19.10.2014 18:50 17,4 C 50 % 1024,7 hPa 0,0 l/m 0,0 km/h (0 Bft) S-SO 157 6,9 C 22,8 C 0,0 km/h (0 Bft)
19.10.2014 19:00 16,2 C 54 % 1024,7 hPa 0,0 l/m 0,0 km/h (0 Bft) S-SO 157 6,9 C 22,8 C 0,0 km/h (0 Bft)
19.10.2014 19:10 14,6 C 58 % 1024,9 hPa 0,0 l/m 0,0 km/h (0 Bft) S-SO 157 6,4 C 22,8 C 0,0 km/h (0 Bft)
19.10.2014 19:20 14,6 C 59 % 1024,9 hPa 0,0 l/m 0,0 km/h (0 Bft) S-SO 157 6,7 C 22,8 C 0,0 km/h (0 Bft)
19.10.2014 19:30 13,4 C 64 % 1025,1 hPa 0,0 l/m 0,0 km/h (0 Bft) S-SO 157 6,7 C 22,8 C 0,0 km/h (0 Bft)
19.10.2014 19:40 11,9 C 67 % 1025,1 hPa 0,0 l/m 0,0 km/h (0 Bft) S-SO 157 6,0 C 22,8 C 0,0 km/h (0 Bft)
19.10.2014 19:50 11,7 C 68 % 1025,1 hPa 0,0 l/m 0,0 km/h (0 Bft) S-SO 157 6,0 C 22,8 C 0,0 km/h (0 Bft)
19.10.2014 19:58 13,3 C 68 % 1025,1 hPa 0,0 l/m 0,0 km/h (0 Bft) S-SO 157 7,5 C 22,8 C 0,0 km/h (0 Bft)
19.10.2014 20:00 13,3 C 68 % 1025,1 hPa 0,0 l/m 0,0 km/h (0 Bft) S-SO 157 7,5 C 22,8 C 0,0 km/h (0 Bft)
19.10.2014 20:10 13,8 C 65 % 1025,2 hPa 0,0 l/m 0,0 km/h (0 Bft) S-SO 157 7,3 C 22,8 C 0,0 km/h (0 Bft)
19.10.2014 20:20 13,6 C 64 % 1025,2 hPa 0,0 l/m 0,0 km/h (0 Bft) S-SO 157 6,9 C 22,8 C 0,0 km/h (0 Bft)
19.10.2014 20:30 13,8 C 64 % 1025,1 hPa 0,0 l/m 0,0 km/h (0 Bft) S-SO 157 7,1 C 22,8 C 0,0 km/h (0 Bft)
19.10.2014 20:40 13,8 C 64 % 1025,1 hPa 0,0 l/m 0,0 km/h (0 Bft) S-SO 157 7,1 C 22,8 C 0,0 km/h (0 Bft)
19.10.2014 20:50 13,5 C 65 % 1024,9 hPa 0,0 l/m 0,0 km/h (0 Bft) S-SO 157 7,1 C 22,8 C 0,0 km/h (0 Bft)
19.10.2014 21:00 13,3 C 66 % 1024,9 hPa 0,0 l/m 0,0 km/h (0 Bft) S-SO 157 7,1 C 22,8 C 0,0 km/h (0 Bft)
19.10.2014 21:10 13,1 C 66 % 1024,9 hPa 0,0 l/m 0,0 km/h (0 Bft) S-SO 157 6,9 C 22,8 C 0,0 km/h (0 Bft)
19.10.2014 21:20 13,0 C 66 % 1024,9 hPa 0,0 l/m 0,0 km/h (0 Bft) S-SO 157 6,8 C 22,8 C 0,0 km/h (0 Bft)
19.10.2014 21:30 12,5 C 66 % 1024,9 hPa 0,0 l/m 0,0 km/h (0 Bft) S-SO 157 6,3 C 22,8 C 0,0 km/h (0 Bft)
19.10.2014 21:40 12,0 C 67 % 1024,9 hPa 0,0 l/m 0,0 km/h (0 Bft) S-SO 157 6,1 C 22,8 C 0,0 km/h (0 Bft)
19.10.2014 21:50 11,5 C 68 % 1025,0 hPa 0,0 l/m 0,0 km/h (0 Bft) S-SO 157 5,8 C 22,8 C 0,0 km/h (0 Bft)
19.10.2014 22:00 12,0 C 68 % 1025,0 hPa 0,0 l/m 0,0 km/h (0 Bft) S-SO 157 6,3 C 22,8 C 0,0 km/h (0 Bft)
19.10.2014 22:10 11,5 C 67 % 1025,0 hPa 0,0 l/m 0,0 km/h (0 Bft) S-SO 157 5,6 C 22,8 C 0,0 km/h (0 Bft)
19.10.2014 22:20 10,4 C 72 % 1025,0 hPa 0,0 l/m 0,0 km/h (0 Bft) S-SO 157 5,6 C 22,8 C 0,0 km/h (0 Bft)
19.10.2014 22:30 10,1 C 73 % 1024,8 hPa 0,0 l/m 0,0 km/h (0 Bft) S-SO 157 5,5 C 22,8 C 0,0 km/h (0 Bft)
19.10.2014 22:40 9,8 C 74 % 1024,8 hPa 0,0 l/m 0,0 km/h (0 Bft) S-SO 157 5,4 C 22,8 C 0,0 km/h (0 Bft)
19.10.2014 22:50 10,2 C 75 % 1024,8 hPa 0,0 l/m 0,0 km/h (0 Bft) S-SO 157 6,0 C 22,8 C 0,0 km/h (0 Bft)
19.10.2014 22:58 9,7 C 75 % 1024,8 hPa 0,0 l/m 0,0 km/h (0 Bft) S-SO 157 5,5 C 22,8 C 0,0 km/h (0 Bft)
19.10.2014 23:00 9,7 C 75 % 1024,8 hPa 0,0 l/m 0,0 km/h (0 Bft) S-SO 157 5,5 C 22,8 C 0,0 km/h (0 Bft)
19.10.2014 23:10 9,4 C 76 % 1025,1 hPa 0,0 l/m 0,0 km/h (0 Bft) S-SO 157 5,4 C 22,8 C 0,0 km/h (0 Bft)
19.10.2014 23:20 9,7 C 78 % 1025,1 hPa 0,0 l/m 0,0 km/h (0 Bft) S-SO 157 6,1 C 22,8 C 0,0 km/h (0 Bft)
19.10.2014 23:30 9,8 C 78 % 1025,2 hPa 0,0 l/m 0,0 km/h (0 Bft) S-SO 157 6,1 C 22,8 C 0,0 km/h (0 Bft)
19.10.2014 23:40 11,3 C 76 % 1025,2 hPa 0,0 l/m 0,0 km/h (0 Bft) S-SO 157 7,2 C 22,8 C 0,0 km/h (0 Bft)
19.10.2014 23:50 10,3 C 75 % 1025,3 hPa 0,0 l/m 0,0 km/h (0 Bft) S-SO 157 6,1 C 22,8 C 0,0 km/h (0 Bft)
_ Min-Zeit 07:20 15:40 17:40 - 23:50 - - 06:00 23:50 23:50
Minimum _ 5,8 C 36 % 1024,5 hPa - 0,0 km/h (0 Bft) - - 5,2 C 22,8 C 0,0 km/h (0 Bft)
_ Max-Zeit 13:00 08:10 13:20 23:50 23:50 - - 12:10 23:50 23:50
Maximum _ 24,2 C 96 % 1026,1 hPa 0,0 l/m 0,0 km/h
S-SO (0 Bft)
- - 15,1 C 22,8 C 0,0 km/h
S-SO (0 Bft)
Durchschnitt _ 12,6 C 74 % 1025,2 hPa #0,0 l/m 0,0 km/h (0 Bft) - - - 7,2 C 22,8 C 0,0 km/h (0 Bft)